Hourly Data Report for January 25, 2020

TORONTO CITY
ONTARIO
Current Station Operator: ECCC - MSC

43°40'00.000" N
79°24'00.000" W
112.50 m
6158355
71508
XTO

Download Data

Hourly Data (January 2020)
Hourly Data Report for January 25, 2020
TIME
LST
Temp Definition
°C
Dew Point Definition
°C
Rel Hum Definition
%
Precip. Amount Definition
mm

Wind Dir Definition
10's deg

Wind Spd Definition
km/h
Visibility Definition
km
Stn Press Definition
kPa
Hmdx Definition


Wind Chill Definition


Weather Definition


00:00 3.2 1.2 86 5.3       100.19     LegendNANA
01:00 3.5 1.9 89 1.8       100.14     LegendNANA
02:00 3.7 2.3 91 2.1       100.08     LegendNANA
03:00 3.8 2.5 91 0.5       100.06     LegendNANA
04:00 3.8 2.3 90 0.9       100.03     LegendNANA
05:00 3.4 1.8 89 1.5       99.93     LegendNANA
06:00 3.2 1.1 86 0.2       99.87     LegendNANA
07:00 3.1 0.9 86 0.2       99.89     LegendNANA
08:00 2.9 0.5 84 0.8       99.85     LegendNANA
09:00 2.8 0.6 85 0.2       99.82     LegendNANA
10:00 2.6 1.0 89 0.3       99.82     LegendNANA
11:00 2.6 1.3 91 0.3       99.77     LegendNANA
12:00 2.9 1.6 92 0.3       99.72     LegendNANA
13:00 3.0 1.9 93 0.2       99.60     LegendNANA
14:00 3.1 2.0 93 0.2       99.53     LegendNANA
15:00 3.1 2.2 93 0.0       99.51     LegendNANA
16:00 3.4 2.4 93 0.0       99.51     LegendNANA
17:00 3.4 2.4 93 0.2       99.52     LegendNANA
18:00 3.3 2.0 91 0.0       99.52     LegendNANA
19:00 3.3 1.7 89 0.0       99.52     LegendNANA
20:00 3.1 1.3 88 0.0       99.53     LegendNANA
21:00 2.8 0.9 88 0.0       99.47     LegendNANA
22:00 2.9 0.7 86 0.0       99.43     LegendNANA
23:00 2.8 0.3 84 0.0       99.40     LegendNANA

Notes on Data Quality.

Legend

  • E = Estimated
  • M = Missing
  • NA = Not Available*
  • [empty] = Indicates an unobserved value
Date modified: